Weather History for McAllen, TX

Change the Weather History Date:

Friday, July 12, 2013

  Actual Average Record
Temperature  
Mean Temperature 87 °F 86 °F  
Max Temperature 98 °F 97 °F 103 °F (1996)
Min Temperature 76 °F 76 °F 63 °F (1974)
Degree Days  
Heating Degree Days 0 0  
Month to date heating degree days 0 0  
Since 1 June heating degree days 0 0  
Since 1 July heating degree days 0 0  
Cooling Degree Days 22 22  
Month to date cooling degree days 251 254  
Year to date cooling degree days 2224 2137  
Since 1 June cooling degree days 928 882  
Growing Degree Days 36 (Base 50)    
Moisture  
Dew Point 72 °F    
Average Humidity 66    
Maximum Humidity 94    
Minimum Humidity 38    
Precipitation  
Precipitation 0.00 in 0.08 in 1.07 in (1974)
Month to date precipitation 0.80 0.91  
Year to date precipitation 5.10 10.27  
Sea Level Pressure  
Sea Level Pressure 29.90 in    
Wind  
Wind Speed 10 mph (SE)    
Max Wind Speed 22 mph    
Max Gust Speed 26 mph    
Visibility 10 miles    
Events      
T = Trace of Precipitation, MM = Missing Value Source: NWS Daily Summary

Daily Weather History Graph

Daily Weather History Graph

Search for Another Location

Airport:

Trip Planner

Search our weather history database for the weather conditions in past years. The results will help you decide how hot, cold, wet, or windy it might be!

Date:

Astronomy

Jul. 12, 2013 Rise Set
Actual Time 6:48 AM CDT 8:28 PM CDT
Civil Twilight 6:23 AM CDT 8:53 PM CDT
Nautical Twilight 5:52 AM CDT 9:24 PM CDT
Astronomical Twilight 5:19 AM CDT 9:57 PM CDT
Moon 10:38 AM CDT (7/12) 11:11 PM CDT (7/12)
Length of Visible Light 14h 30m
Length of Day
13h 39m
Waxing Crescent, 17% of the Moon is Illuminated
Jul 12
Waxing Crescent
Jul 15
First Quarter
Jul 22
Full
Jul 29
Last Quarter
Aug 6
New

Hourly Weather History & Observations

Time (CDT) Temp. Heat Index Dew Point Humidity Pressure Visibility Wind Dir Wind Speed Gust Speed Precip Events Conditions
12:53 AM 80.1 °F 85.1 °F 75.0 °F 85% 29.94 in 10.0 mi SSE 9.2 mph - N/A   Clear
1:53 AM 79.0 °F - 75.0 °F 88% 29.93 in 10.0 mi SE 8.1 mph - N/A   Clear
2:53 AM 78.1 °F - 75.0 °F 90% 29.91 in 10.0 mi SSE 5.8 mph - N/A   Partly Cloudy
3:53 AM 78.1 °F - 75.0 °F 90% 29.89 in 10.0 mi SSE 6.9 mph - N/A   Clear
4:53 AM 77.0 °F - 75.0 °F 94% 29.89 in 10.0 mi SSE 3.5 mph - N/A   Clear
5:53 AM 75.9 °F - 73.9 °F 94% 29.89 in 10.0 mi SE 5.8 mph - N/A   Clear
6:53 AM 75.9 °F - 73.9 °F 94% 29.89 in 10.0 mi SE 5.8 mph - N/A   Clear
7:53 AM 78.1 °F - 75.0 °F 90% 29.91 in 10.0 mi ESE 5.8 mph - N/A   Clear
8:53 AM 82.0 °F 88.6 °F 75.0 °F 79% 29.92 in 10.0 mi SE 8.1 mph - N/A   Clear
9:53 AM 84.9 °F 91.4 °F 73.0 °F 67% 29.93 in 10.0 mi SE 10.4 mph - N/A   Clear
10:53 AM 88.0 °F 94.7 °F 72.0 °F 59% 29.93 in 10.0 mi SSE 9.2 mph - N/A   Partly Cloudy
11:53 AM 91.0 °F 97.6 °F 71.1 °F 52% 29.93 in 10.0 mi SSE 10.4 mph - N/A   Clear
12:53 PM 93.0 °F 99.0 °F 70.0 °F 47% 29.91 in 10.0 mi ESE 9.2 mph 19.6 mph N/A   Clear
1:53 PM 95.0 °F 99.5 °F 68.0 °F 41% 29.90 in 10.0 mi East 8.1 mph 18.4 mph N/A   Partly Cloudy
2:53 PM 98.1 °F 104.4 °F 69.1 °F 39% 29.89 in 10.0 mi ESE 15.0 mph 23.0 mph N/A   Mostly Cloudy
3:53 PM 98.1 °F 103.0 °F 68.0 °F 37% 29.87 in 10.0 mi SE 12.7 mph 25.3 mph N/A   Partly Cloudy
4:53 PM 96.1 °F 99.3 °F 66.0 °F 37% 29.86 in 10.0 mi ESE 17.3 mph 21.9 mph N/A   Overcast
5:53 PM 97.0 °F 102.2 °F 68.0 °F 39% 29.86 in 10.0 mi SE 19.6 mph 26.5 mph N/A   Scattered Clouds
6:53 PM 93.9 °F 98.6 °F 68.0 °F 43% 29.86 in 10.0 mi SE 17.3 mph - N/A   Clear
7:53 PM 90.0 °F 94.5 °F 69.1 °F 50% 29.87 in 10.0 mi ESE 16.1 mph 24.2 mph N/A   Clear
8:53 PM 86.0 °F 90.7 °F 70.0 °F 59% 29.88 in 10.0 mi SE 13.8 mph - N/A   Clear
9:53 PM 84.0 °F 89.6 °F 72.0 °F 67% 29.88 in 10.0 mi SE 13.8 mph - N/A   Clear
10:53 PM 82.0 °F 86.7 °F 72.0 °F 71% 29.91 in 10.0 mi SE 10.4 mph - N/A   Clear
11:53 PM 80.1 °F 84.2 °F 73.0 °F 79% 29.93 in 10.0 mi SE 8.1 mph - N/A   Clear